Airfield :
LOGIN :

Register | Disclaimer

   EN    FR    IT 

 










Legend :    VFR   Marginal VFR   IFR   Intensive IFR   Very Intensive IFR
Visi :
Ceiling :
>= 8 km
>= 3000ft
5 to 8 km
1000 to 3000 ft
1500m to 5 km
500 to 1000 ft
800 to 1500m
200 to 500 ft
< 800m
< 200 ft
Symbols :   Thunderstorms  Fog  Heavy snow  Heavy precipitations  Wind > 20 kt
SIGMETs :     Misc.  Thunderstorms  Icing  Turbulence  Mountain Waves  Volcanic Ashes







- Airport Elevation : 1043 ft
- IATA code : SLD


LZSL - Sliac

CURRENT METAR :
  • 240330Z 23001KT CAVOK M07/M09 Q1039

EXPIRED METARs :
  • 240300Z VRB02KT CAVOK M07/M10 Q1039
  • 240230Z 02003KT CAVOK M07/M09 Q1039
  • 240200Z 29004KT CAVOK M07/M10 Q1040
  • 240130Z 08003KT CAVOK M07/M10 Q1040
  • 240100Z 00000KT CAVOK M07/M10 Q1039

TAF TAF LZSL
Valid from the 24 at 03:00 until the 24 at 12:00 UTC


240200Z 2403/2412 VRB02KT CAVOK
TEMPO 2403/2408 5000 BR FEW025
No reported NOTAMs for that airfield.



MET'MAP, your aeronautical weather chart ! - Copyright ORBIFLY December 2007 - Disclaimer

ORBIFLY MET'MAP TEAM :

Programming & Development : Alexandra Zaïnal
Concept & Development : Baudouin d'Aumeries
Co-Development & Prog : Marc-Olivier Méhu
Technical & hardware support : Manuel Goepfert

Contact : metmap@orbifly.com




SOURCES & CREDITS :

   NOAA